Back to Previous

Regional Weather Roundup

000
ASUS44 KLZK 021705
RWRLZK

WEATHER ROUNDUP FOR ARKANSAS
NATIONAL WEATHER SERVICE LITTLE ROCK AR
1200 PM CDT THU JUL 02 2015

NOTE: "FAIR" INDICATES FEW OR NO CLOUDS BELOW 12,000 FEET WITH NO
SIGNIFICANT WEATHER AND/OR OBSTRUCTIONS TO VISIBILITY.

ARZ001-003-010-029-021800-
NORTHWEST ARKANSAS
  
CITY           SKY/WX    TMP DP  RH WIND       PRES   REMARKS
FAYETTEVILLE   PTSUNNY   82  72  71 SW12      29.90R HX  87           
FORT SMITH     SUNNY     86  70  58 W16       29.88S HX  90           
HARRISON       CLOUDY    80  73  79 W3        29.90R                  
BENTONVILLE    CLOUDY    81  70  69 W12       29.90S                  
ROGERS         CLOUDY    80  72  76 W12       29.90R                  
SILOAM SPGS    CLOUDY    84  70  61 SW16      29.87  HX  88           
HIGHFILL       PTSUNNY   84  73  69 W10       29.89R HX  90           
SPRINGDALE     PTSUNNY   82  72  69 SW15G22   29.91S HX  87           
$$

ARZ004-005-016-021800-
NORTH CENTRAL ARKANSAS
  
CITY           SKY/WX    TMP DP  RH WIND       PRES   REMARKS
BATESVILLE     PTSUNNY   81  73  78 S10       29.88S HX  85           
FLIPPIN        MOSUNNY   81  72  74 S8        29.85F                  
MTN HOME       CLOUDY    79  73  82 SW8       29.87F                  
$$

ARZ040-041-021800-
WEST CENTRAL ARKANSAS
  
CITY           SKY/WX    TMP DP  RH WIND       PRES   REMARKS
MENA           PTSUNNY   82  68  61 SW10G20   29.96S HX  85           
MOUNT IDA      PTSUNNY   84  68  58 VRB6G18   29.92S HX  87           
$$

ARZ009-017-025-026-028-021800-
NORTHEAST ARKANSAS
  
CITY           SKY/WX    TMP DP  RH WIND       PRES   REMARKS
JONESBORO      CLOUDY    83  73  72 SW13G18   29.86F HX  89           
NEWPORT        CLOUDY    76  73  90 SW13      29.88S                  
WALNUT RIDGE   MOSUNNY   81  70  69 SW10      29.86F                  
BLYTHEVILLE    CLOUDY    80  73  79 SW15G21   29.89S                  
NW BLYTHEVILLE PTSUNNY   81  73  78 SW9       29.88  HX  85           
$$

ARZ022-023-033-042-044-021800-
CENTRAL ARKANSAS
  
CITY           SKY/WX    TMP DP  RH WIND       PRES   REMARKS
LITTLE ROCK    PTSUNNY   87  67  51 SW13G25   29.92R HX  90           
N LITTLE ROCK  PTSUNNY   85  73  66 SW9G20    29.92R HX  91           
JACKSONVILLE   SUNNY     88  71  56 SW15      29.90S HX  94           
SEARCY         MOSUNNY   84  74  71 S10G16    29.90F HX  91           
HOT SPRINGS    PTSUNNY   86  69  56 SW16G22   29.94F HX  90           
RUSSELLVILLE   CLOUDY    84  70  62 SW6       29.89R HX  88           
CLINTON        FAIR      84  75  74 SW7       29.90S HX  92           
$$

ARZ036-021800-
EAST ARKANSAS
  
CITY           SKY/WX    TMP DP  RH WIND       PRES   REMARKS
WEST MEMPHIS   CLOUDY    79  71  76 SW13G18   29.90F                  
$$

ARZ050-053-066-070-073-021800-
SOUTHWEST ARKANSAS
  
CITY           SKY/WX    TMP DP  RH WIND       PRES   REMARKS
ARKADELPHIA    FAIR      87  70  57 SW18      29.95F HX  92           
TEXARKANA      LGT RAIN  86  69  56 SW20G26   29.99F HX  90           
EL DORADO      PTSUNNY   85  71  63 SW14      30.01S HX  90           
DE QUEEN       PTSUNNY   85  68  56 W18G25    29.94F HX  88           
$$

ARZ056-057-069-021800-
SOUTHEAST ARKANSAS
  
CITY           SKY/WX    TMP DP  RH WIND       PRES   REMARKS
PINE BLUFF     PTSUNNY   85  69  58 SW14G29   29.95F HX  89           
STUTTGART      PTSUNNY   86  70  58 SW15      29.93S HX  90           
MONTICELLO     CLOUDY    81  71  71 SW9       29.99S HX  85           

$$



USA.gov is the U.S. government's official web portal to all federal, state and local government web resources and services.